EW8804 La Poblachuela ES current weather conditions

sailwx.info

Wind from 272 at 2 knots gusting 11

Air temperature 17.2° C
Dewpoint 13.5° C

Last reported at 2020-Sep-19 09:07 UTC.
Time now 2020-Sep-19 09:34 UTC

Location: N 38°58' W 003°57'.
View on Google Maps.

See reports from other nearby stations

  
Tides and Currents Weather Stations Pressure Air Temp Water Temp Dewpoint Dewpoint Depression Visibility Wind Speed Wind Dir Waves Ship Positions
date/time (UTC)wind fromknots sea level pressurealtimeterstation pressurevisibilityair tempwater tempwave heightnotes
2020-Sep-19 09:07 272 2 gusting 11 17.2
2020-Sep-19 09:02 262 5 gusting 7 17.2
2020-Sep-19 08:57 248 1 gusting 8 17.2
2020-Sep-19 08:52 261 3 gusting 10 17.2
2020-Sep-19 08:47 288 5 gusting 13 17.2
2020-Sep-19 08:42 275 3 gusting 13 17.2
2020-Sep-19 08:37 272 4 gusting 12 17.8
2020-Sep-19 08:32 196 2 gusting 9 17.8
2020-Sep-19 08:27 266 3 gusting 10 17.8
2020-Sep-19 08:22 250 2 gusting 8 17.8
2020-Sep-19 08:17 254 3 gusting 8 17.8
2020-Sep-19 08:07 243 5 gusting 10 17.2
2020-Sep-19 08:02 277 4 gusting 9 17.2
2020-Sep-19 07:57 238 2 gusting 8 17.2
2020-Sep-19 07:52 260 2 gusting 10 17.2
2020-Sep-19 07:47 252 4 gusting 10 16.7
2020-Sep-19 07:42 271 2 gusting 8 16.7
2020-Sep-19 07:37 251 3 gusting 8 16.7
2020-Sep-19 07:32 257 0 gusting 10 16.7
2020-Sep-19 07:27 242 3 gusting 10 16.7
2020-Sep-19 07:22 271 0 gusting 7 16.1
2020-Sep-19 07:17 241 2 gusting 7 16.1
2020-Sep-19 07:12 263 1 gusting 8 16.1
2020-Sep-19 07:07 254 0 gusting 8 16.1
2020-Sep-19 07:02 242 16.1
2020-Sep-19 06:57 219 1 gusting 5 16.1
2020-Sep-19 06:52 263 2 gusting 5 15.6
2020-Sep-19 06:47 245 1 gusting 5 15.6
2020-Sep-19 06:42 244 15.6
2020-Sep-19 06:37 235 0 gusting 3 15.6
2020-Sep-19 06:32 234 0 gusting 3 15.6
2020-Sep-19 06:27 241 0 gusting 3 15.6
2020-Sep-19 06:22 239 1 gusting 3 15.6
2020-Sep-19 06:17 241 15.0
2020-Sep-19 06:12 245 0 gusting 2 15.0
2020-Sep-19 06:07 245 15.0
2020-Sep-19 06:02 246 15.0
2020-Sep-19 05:57 246 15.0
2020-Sep-19 05:52 249 0 gusting 4 15.0
2020-Sep-19 05:47 248 0 gusting 4 15.0
2020-Sep-19 05:42 241 15.0
2020-Sep-19 05:37 241 0 gusting 2 15.0
2020-Sep-19 05:32 241 15.0
2020-Sep-19 05:27 241 15.0
2020-Sep-19 05:22 241 15.0
2020-Sep-19 05:17 241 15.0
2020-Sep-19 05:12 241 15.0
2020-Sep-19 05:07 241 15.0
2020-Sep-19 05:02 241 15.0
2020-Sep-19 04:57 227 15.0
2020-Sep-19 04:52 227 15.0
2020-Sep-19 04:47 227 15.0
2020-Sep-19 04:42 227 15.0
2020-Sep-19 04:37 227 15.0
2020-Sep-19 04:32 227 15.0
2020-Sep-19 04:27 227 0 gusting 3 15.0
2020-Sep-19 04:22 225 15.0
2020-Sep-19 04:17 228 0 gusting 3 15.0
2020-Sep-19 04:12 226 0 gusting 3 15.0
2020-Sep-19 04:07 221 15.6
2020-Sep-19 04:02 247 1 gusting 4 15.6
2020-Sep-19 03:57 237 0 gusting 5 15.6
2020-Sep-19 03:52 248 15.6
2020-Sep-19 03:47 246 0 gusting 5 15.6
2020-Sep-19 03:42 236 1 gusting 6 15.6
2020-Sep-19 03:37 246 15.6
2020-Sep-19 03:32 240 15.6
2020-Sep-19 03:27 239 0 gusting 3 15.6
2020-Sep-19 03:22 236 0 gusting 3 15.6
2020-Sep-19 03:17 234 0 gusting 4 15.6
2020-Sep-19 03:12 226 1 gusting 4 15.6
2020-Sep-19 03:08 247 1 gusting 5 15.6
2020-Sep-19 03:02 249 2 gusting 6 15.6
2020-Sep-19 02:57 240 2 gusting 6 15.6
2020-Sep-19 02:52 220 2 gusting 5 15.6
2020-Sep-19 02:47 225 0 gusting 5 15.6
2020-Sep-19 02:42 223 0 gusting 4 15.6
2020-Sep-19 02:37 213 2 gusting 4 15.6
2020-Sep-19 02:32 219 1 gusting 4 15.6
2020-Sep-19 02:27 219 1 gusting 4 15.6
2020-Sep-19 02:22 226 0 gusting 4 15.6
2020-Sep-19 02:17 232 2 gusting 4 15.6
2020-Sep-19 02:12 223 2 gusting 5 15.6
2020-Sep-19 02:07 232 1 gusting 5 15.6
2020-Sep-19 02:02 238 0 gusting 2 15.6
2020-Sep-19 01:57 239 0 gusting 1 15.6
2020-Sep-19 01:52 241 0 gusting 4 15.6
2020-Sep-19 01:47 241 15.6
2020-Sep-19 01:42 240 1 gusting 4 15.6
2020-Sep-19 01:37 246 0 gusting 6 15.6
2020-Sep-19 01:32 219 2 gusting 6 15.6
2020-Sep-19 01:27 261 1 gusting 5 15.6
2020-Sep-19 01:22 213 1 gusting 7 16.1
2020-Sep-19 01:17 226 3 gusting 9 16.1
2020-Sep-19 01:12 255 1 gusting 9 16.1
2020-Sep-19 01:07 270 3 gusting 8 16.1
2020-Sep-19 01:02 264 2 gusting 9 16.1
2020-Sep-19 00:57 265 3 gusting 9 16.1
2020-Sep-19 00:52 279 3 gusting 8 16.7
2020-Sep-19 00:47 265 0 gusting 6 16.7
2020-Sep-19 00:42 268 0 gusting 6 16.7
2020-Sep-19 00:37 273 3 gusting 4 16.7
2020-Sep-19 00:32 270 2 gusting 7 16.7
2020-Sep-19 00:27 267 2 gusting 7 16.7
2020-Sep-19 00:22 256 3 gusting 6 16.7
2020-Sep-19 00:17 273 1 gusting 3 16.7
2020-Sep-19 00:12 265 16.7
2020-Sep-19 00:07 258 3 gusting 6 16.7
2020-Sep-19 00:02 244 2 gusting 7 17.2
2020-Sep-18 23:57 231 1 gusting 6 17.2
2020-Sep-18 23:52 201 2 gusting 6 17.2
2020-Sep-18 23:47 210 0 gusting 4 17.2
2020-Sep-18 23:42 213 2 gusting 4 17.2
2020-Sep-18 23:37 200 1 gusting 4 17.2
2020-Sep-18 23:32 238 0 gusting 6 17.2
2020-Sep-18 23:27 212 1 gusting 6 17.2
2020-Sep-18 23:22 223 1 gusting 5 17.2
2020-Sep-18 23:17 212 1 gusting 5 17.2
2020-Sep-18 23:12 250 2 gusting 5 17.2
2020-Sep-18 23:07 243 2 gusting 5 17.2
2020-Sep-18 23:02 232 0 gusting 8 17.2
2020-Sep-18 22:57 246 2 gusting 8 17.2
2020-Sep-18 22:52 211 2 gusting 7 17.2
2020-Sep-18 22:47 234 3 gusting 6 17.2
2020-Sep-18 22:42 219 2 gusting 6 17.2
2020-Sep-18 22:37 212 3 gusting 8 17.2
2020-Sep-18 22:32 212 3 gusting 9 17.2
2020-Sep-18 22:27 237 3 gusting 9 17.2
2020-Sep-18 22:22 244 3 gusting 7 17.2
2020-Sep-18 22:17 244 1 gusting 7 17.2
2020-Sep-18 22:12 228 1 gusting 7 17.2
2020-Sep-18 22:07 232 0 gusting 7 17.2
2020-Sep-18 22:02 194 4 gusting 6 17.2
2020-Sep-18 21:57 216 5 gusting 8 17.2
2020-Sep-18 21:52 219 1 gusting 6 16.7
2020-Sep-18 21:47 213 1 gusting 6 16.7
2020-Sep-18 21:42 213 2 gusting 6 16.7
2020-Sep-18 21:37 213 2 gusting 5 16.7
2020-Sep-18 21:32 215 1 gusting 3 16.7
2020-Sep-18 21:27 211 1 gusting 3 16.7
2020-Sep-18 21:22 221 1 gusting 3 16.7
2020-Sep-18 21:17 213 0 gusting 4 16.7
2020-Sep-18 21:12 223 0 gusting 4 16.7
2020-Sep-18 21:07 231 0 gusting 3 16.7
2020-Sep-18 21:02 200 0 gusting 6 16.7
2020-Sep-18 20:57 245 16.7
2020-Sep-18 20:52 228 0 gusting 5 16.7
2020-Sep-18 20:47 209 0 gusting 5 16.7
2020-Sep-18 20:42 236 1 gusting 6 16.7
2020-Sep-18 20:37 232 2 gusting 6 16.1
2020-Sep-18 20:32 245 2 gusting 5 16.1
2020-Sep-18 20:27 216 16.1
2020-Sep-18 20:22 216 16.1
2020-Sep-18 20:17 216 16.1
2020-Sep-18 20:12 216 16.1
2020-Sep-18 20:07 216 16.1
2020-Sep-18 20:02 216 16.1
2020-Sep-18 19:57 216 0 gusting 5 16.1
2020-Sep-18 19:52 215 16.1
2020-Sep-18 19:47 216 1 gusting 4 16.1
2020-Sep-18 19:42 231 16.1
2020-Sep-18 19:37 216 16.1
2020-Sep-18 19:32 216 16.7
2020-Sep-18 19:27 217 16.7
2020-Sep-18 19:22 217 16.7
2020-Sep-18 19:17 217 16.7
2020-Sep-18 19:12 217 16.7
2020-Sep-18 19:07 217 17.2
2020-Sep-18 19:02 217 17.2
2020-Sep-18 18:57 217 17.2
2020-Sep-18 18:52 218 17.2
2020-Sep-18 18:47 214 17.8
2020-Sep-18 18:42 214 17.8
2020-Sep-18 18:37 215 17.8
2020-Sep-18 18:32 215 17.8
2020-Sep-18 18:27 215 17.8
2020-Sep-18 18:22 214 17.8
2020-Sep-18 18:17 214 1 gusting 2 18.3
2020-Sep-18 18:12 207 18.3
2020-Sep-18 18:07 198 18.3
2020-Sep-18 18:02 119 18.3
2020-Sep-18 17:57 119 18.3
2020-Sep-18 17:52 117 18.3
2020-Sep-18 17:47 111 18.3
2020-Sep-18 17:42 111 18.3
2020-Sep-18 17:37 111 18.3
2020-Sep-18 17:32 111 18.3
2020-Sep-18 17:27 111 18.3
2020-Sep-18 17:22 111 18.3
2020-Sep-18 17:17 111 18.3
2020-Sep-18 17:12 097 18.9
2020-Sep-18 17:07 057 18.9
2020-Sep-18 17:02 057 18.9
2020-Sep-18 16:57 053 18.9
2020-Sep-18 16:07 053 18.3
2020-Sep-18 16:02 054 18.3
2020-Sep-18 15:57 053 18.3
2020-Sep-18 15:52 054 18.9
2020-Sep-18 15:47 060 0 gusting 1 18.9
2020-Sep-18 15:42 293 18.9
2020-Sep-18 15:37 269 18.9
2020-Sep-18 15:32 263 18.3
2020-Sep-18 15:27 246 18.3
2020-Sep-18 15:22 242 17.8
2020-Sep-18 15:17 236 17.2
2020-Sep-18 15:12 236 16.7
2020-Sep-18 15:07 236 16.1
2020-Sep-18 15:03 236 15.6
2020-Sep-18 14:57 223 2 gusting 5 16.1
2020-Sep-18 14:52 248 1 gusting 9 16.1
2020-Sep-18 14:47 207 2 gusting 9 16.1
2020-Sep-18 14:42 236 3 gusting 7 17.2
2020-Sep-18 14:38 207 3 gusting 6 18.3
2020-Sep-18 14:32 222 18.3
2020-Sep-18 14:27 222 18.3
2020-Sep-18 14:22 258 18.9
2020-Sep-18 14:17 097 18.9
2020-Sep-18 14:12 097 19.4
2020-Sep-18 14:07 097 19.4
2020-Sep-18 14:02 097 19.4
2020-Sep-18 13:57 097 20.0
2020-Sep-18 13:52 097 20.0
2020-Sep-18 13:47 097 20.0
2020-Sep-18 13:42 097 20.0
2020-Sep-18 13:38 097 20.0
2020-Sep-18 13:32 097 20.6
2020-Sep-18 13:27 097 20.6
2020-Sep-18 13:22 097 20.6
2020-Sep-18 13:17 097 20.6
2020-Sep-18 13:12 095 21.1
2020-Sep-18 13:07 097 21.1
2020-Sep-18 13:02 097 21.1
2020-Sep-18 12:57 097 21.1
2020-Sep-18 12:52 097 21.1
2020-Sep-18 12:47 097 21.7
2020-Sep-18 12:42 096 21.1
2020-Sep-18 12:37 092 21.1
2020-Sep-18 12:32 092 21.1
2020-Sep-18 12:27 092 20.6
2020-Sep-18 12:22 107 20.6
2020-Sep-18 12:17 207 20.0
2020-Sep-18 12:12 207 20.0
2020-Sep-18 12:07 209 20.0
2020-Sep-18 12:02 209 19.4
2020-Sep-18 11:57 209 18.9
2020-Sep-18 11:52 209 18.9
2020-Sep-18 11:47 209 18.3
2020-Sep-18 11:42 209 18.3
2020-Sep-18 11:37 216 17.8
2020-Sep-18 11:32 216 17.8
2020-Sep-18 11:27 216 17.2
2020-Sep-18 11:22 216 16.7
2020-Sep-18 11:17 216 16.7
2020-Sep-18 11:12 216 16.7
2020-Sep-18 11:07 216 16.7
2020-Sep-18 11:02 216 16.1
2020-Sep-18 10:57 216 16.1
2020-Sep-18 10:52 216 16.1
2020-Sep-18 10:47 216 16.1
2020-Sep-18 10:42 216 15.6
2020-Sep-18 10:37 216 16.1
2020-Sep-18 10:32 216 16.1
2020-Sep-18 10:27 216 16.1
2020-Sep-18 10:22 212 0 gusting 3 16.1
2020-Sep-18 10:17 236 0 gusting 3 16.1
2020-Sep-18 10:12 088 0 gusting 2 16.7
2020-Sep-18 10:07 129 0 gusting 1 16.7
2020-Sep-18 10:02 192 16.7
2020-Sep-18 09:57 192 17.2
2020-Sep-18 09:52 225 17.2
2020-Sep-18 09:47 225 17.2
2020-Sep-18 09:42 225 17.2
2020-Sep-18 09:37 225 17.8
2020-Sep-18 09:32 225 18.3
2020-Sep-18 09:27 225 18.3
2020-Sep-18 09:22 225 19.4
2020-Sep-18 09:17 225 20.0
2020-Sep-18 09:12 225 20.0
2020-Sep-18 09:07 225 20.0
2020-Sep-18 09:02 225 20.0
2020-Sep-18 08:57 225 20.0
2020-Sep-18 08:52 225 20.0
2020-Sep-18 08:47 225 20.0
2020-Sep-18 08:42 225 20.0
2020-Sep-18 08:37 225 20.0
2020-Sep-18 08:32 225 20.0
2020-Sep-18 08:27 225 20.0
2020-Sep-18 08:22 225 20.0
2020-Sep-18 08:17 225 20.0
2020-Sep-18 08:07 225 20.0
2020-Sep-18 08:02 225 19.4
2020-Sep-18 07:57 225 19.4
2020-Sep-18 07:52 225 19.4
2020-Sep-18 07:47 225 19.4
2020-Sep-18 07:42 225 19.4
2020-Sep-18 07:37 225 19.4
2020-Sep-18 07:32 225 19.4
2020-Sep-18 07:27 225 19.4
2020-Sep-18 07:22 225 19.4
2020-Sep-18 07:17 225 19.4
2020-Sep-18 07:12 225 19.4
2020-Sep-18 07:07 225 19.4
2020-Sep-18 07:02 225 19.4
2020-Sep-18 06:57 225 19.4
2020-Sep-18 06:52 225 19.4
2020-Sep-18 06:47 225 19.4
2020-Sep-18 06:42 218 19.4
2020-Sep-18 06:37 218 18.9
2020-Sep-18 06:32 218 18.9
2020-Sep-18 06:27 218 18.9
2020-Sep-18 06:22 218 19.4
2020-Sep-18 06:17 218 19.4
2020-Sep-18 06:12 218 19.4
2020-Sep-18 06:07 218 19.4
2020-Sep-18 06:02 218 19.4
2020-Sep-18 05:57 218 19.4
2020-Sep-18 05:52 218 19.4
2020-Sep-18 05:47 218 19.4
2020-Sep-18 05:42 218 19.4
2020-Sep-18 05:37 218 19.4
2020-Sep-18 05:32 218 19.4
2020-Sep-18 05:27 218 20.0
2020-Sep-18 05:22 218 20.0
2020-Sep-18 05:17 218 20.0
2020-Sep-18 05:12 218 20.0
2020-Sep-18 05:07 218 20.0
2020-Sep-18 05:02 218 20.0
2020-Sep-18 04:57 218 20.0
2020-Sep-18 04:52 218 0 gusting 2 20.0
2020-Sep-18 04:47 218 20.0
2020-Sep-18 04:42 216 1 gusting 3 20.0
2020-Sep-18 04:37 216 0 gusting 2 20.6
2020-Sep-18 04:32 216 20.6
2020-Sep-18 04:27 216 20.6
2020-Sep-18 04:22 235 20.6
2020-Sep-18 04:17 202 20.6
2020-Sep-18 04:12 207 2 gusting 6 20.6
2020-Sep-18 04:07 213 0 gusting 8 20.6
2020-Sep-18 04:02 211 5 gusting 9 20.6
2020-Sep-18 03:57 208 3 gusting 9 20.6
2020-Sep-18 03:52 208 3 gusting 7 20.6
2020-Sep-18 03:47 204 5 gusting 9 20.6
2020-Sep-18 03:42 219 5 gusting 9 20.6
2020-Sep-18 03:38 196 3 gusting 7 20.6
2020-Sep-18 03:32 229 1 gusting 6 20.6
2020-Sep-18 03:27 226 3 gusting 6 20.6
2020-Sep-18 03:22 218 3 gusting 10 21.1
2020-Sep-18 03:17 213 3 gusting 10 21.1
2020-Sep-18 03:12 208 4 gusting 11 21.1
2020-Sep-18 03:07 223 4 gusting 11 21.1
2020-Sep-18 03:02 216 3 gusting 13 21.1
2020-Sep-18 02:57 207 4 gusting 13 21.1
2020-Sep-18 02:52 186 5 gusting 11 21.1
2020-Sep-18 02:47 220 6 gusting 10 21.1
2020-Sep-18 02:42 211 3 gusting 9 21.1
2020-Sep-18 02:37 205 4 gusting 11 21.1
2020-Sep-18 02:32 260 6 gusting 11 21.1
2020-Sep-18 02:27 250 4 gusting 8 21.7
2020-Sep-18 02:22 216 2 gusting 11 21.7
2020-Sep-18 02:17 225 5 gusting 11 21.7
2020-Sep-18 02:12 203 3 gusting 6 21.7
2020-Sep-18 02:07 214 2 gusting 6 21.1
2020-Sep-18 02:02 209 3 gusting 8 21.1
2020-Sep-18 01:57 215 4 gusting 8 21.1
2020-Sep-18 01:52 209 1 gusting 6 21.1
2020-Sep-18 01:47 215 2 gusting 4 21.1
2020-Sep-18 01:42 209 0 gusting 6 21.1
2020-Sep-18 01:37 209 1 gusting 6 21.1
2020-Sep-18 01:32 211 1 gusting 8 21.1
2020-Sep-18 01:27 211 3 gusting 8 21.1
2020-Sep-18 01:22 209 0 gusting 7 21.1
2020-Sep-18 01:17 211 2 gusting 7 21.1
2020-Sep-18 01:12 207 2 gusting 6 21.1
2020-Sep-18 01:07 209 2 gusting 6 21.1
2020-Sep-18 01:02 210 2 gusting 8 21.1
2020-Sep-18 00:57 207 2 gusting 8 21.1
2020-Sep-18 00:52 221 4 gusting 9 21.1
2020-Sep-18 00:47 211 6 gusting 9 21.1
2020-Sep-18 00:42 213 4 gusting 7 21.1
2020-Sep-18 00:38 208 3 gusting 6 21.1
2020-Sep-18 00:32 215 1 gusting 6 21.1
2020-Sep-18 00:27 218 1 gusting 6 21.1
2020-Sep-18 00:22 219 0 gusting 5 21.1
2020-Sep-18 00:17 216 1 gusting 5 21.1
2020-Sep-18 00:12 219 0 gusting 4 21.1
2020-Sep-18 00:07 219 21.1
2020-Sep-18 00:03 214 0 gusting 2 21.1
2020-Sep-17 23:57 215 21.1
2020-Sep-17 23:52 212 1 gusting 4 21.1
2020-Sep-17 23:47 213 21.1
2020-Sep-17 23:42 219 2 gusting 6 21.1
2020-Sep-17 23:37 213 0 gusting 6 21.1
2020-Sep-17 23:32 213 0 gusting 4 21.1
2020-Sep-17 23:27 212 21.1
2020-Sep-17 23:22 220 1 gusting 5 20.6
2020-Sep-17 23:17 207 2 gusting 5 20.6
2020-Sep-17 23:12 214 2 gusting 5 20.0
2020-Sep-17 23:07 237 19.4
2020-Sep-17 23:02 243 19.4
2020-Sep-17 22:57 243 19.4
2020-Sep-17 22:52 243 19.4
2020-Sep-17 22:47 243 19.4
2020-Sep-17 22:42 243 19.4
2020-Sep-17 22:37 243 20.0
2020-Sep-17 22:33 243 20.0
2020-Sep-17 22:27 243 20.0
2020-Sep-17 22:23 243 20.0
2020-Sep-17 22:17 243 20.0
2020-Sep-17 22:12 243 20.0
2020-Sep-17 22:07 243 20.0
2020-Sep-17 22:02 243 20.0
2020-Sep-17 21:57 243 20.0
2020-Sep-17 21:52 243 20.0
2020-Sep-17 21:47 243 20.0
2020-Sep-17 21:42 243 20.0
2020-Sep-17 21:37 243 20.0
2020-Sep-17 21:32 243 20.0
2020-Sep-17 21:27 243 20.0
2020-Sep-17 21:22 243 20.0
2020-Sep-17 21:17 243 20.0
2020-Sep-17 21:12 243 20.6
2020-Sep-17 21:07 243 20.6
2020-Sep-17 21:02 243 20.6
2020-Sep-17 20:57 243 20.6
2020-Sep-17 20:52 243 20.6
2020-Sep-17 20:47 243 20.6
2020-Sep-17 20:42 243 20.6
2020-Sep-17 20:37 243 20.6
2020-Sep-17 20:32 243 21.1
2020-Sep-17 20:27 243 21.1
2020-Sep-17 20:23 243 21.1
2020-Sep-17 20:17 243 21.1
2020-Sep-17 20:12 243 21.1
2020-Sep-17 20:07 243 21.7
2020-Sep-17 20:02 243 21.7
2020-Sep-17 19:57 243 21.7
2020-Sep-17 19:52 243 21.7
2020-Sep-17 19:47 243 22.2
2020-Sep-17 19:42 243 22.2
2020-Sep-17 19:37 243 22.8
2020-Sep-17 19:32 243 22.8
2020-Sep-17 19:27 243 22.8
2020-Sep-17 19:22 243 22.8
2020-Sep-17 19:17 243 0 gusting 3 23.3
2020-Sep-17 19:12 217 0 gusting 2 23.3
2020-Sep-17 19:07 251 23.3
2020-Sep-17 19:02 249 23.3
2020-Sep-17 18:57 250 0 gusting 7 23.3
2020-Sep-17 18:52 279 4 gusting 8 23.9
2020-Sep-17 18:47 238 1 gusting 11 23.9
2020-Sep-17 18:42 212 1 gusting 11 24.4
2020-Sep-17 18:37 207 4 gusting 11 25.0
2020-Sep-17 18:32 209 3 gusting 8 25.6
2020-Sep-17 18:27 232 2 gusting 8 25.6
2020-Sep-17 18:22 213 2 gusting 7 25.6
2020-Sep-17 18:17 217 2 gusting 5 25.6
2020-Sep-17 18:12 217 25.6
2020-Sep-17 18:07 217 0 gusting 2 26.1
2020-Sep-17 18:02 217 26.1
2020-Sep-17 17:57 217 0 gusting 4 26.1
2020-Sep-17 17:52 214 1 gusting 5 26.1
2020-Sep-17 17:47 216 26.1
2020-Sep-17 17:42 209 2 gusting 4 26.1
2020-Sep-17 17:37 216 26.7
2020-Sep-17 17:32 214 1 gusting 5 26.7
2020-Sep-17 17:27 216 26.7
2020-Sep-17 17:22 221 2 gusting 6 26.7
2020-Sep-17 17:17 206 0 gusting 5 26.7
2020-Sep-17 17:12 213 26.7
2020-Sep-17 17:07 217 0 gusting 7 26.7
2020-Sep-17 17:02 205 0 gusting 7 26.7
2020-Sep-17 16:57 209 4 gusting 8 26.7
2020-Sep-17 16:52 220 1 gusting 8 26.7
2020-Sep-17 16:47 214 2 gusting 7 26.7
2020-Sep-17 16:42 229 0 gusting 3 26.7
2020-Sep-17 16:37 218 0 gusting 5 26.7
2020-Sep-17 16:32 202 4 gusting 12 27.2
2020-Sep-17 16:27 205 4 gusting 12 27.2
2020-Sep-17 16:22 220 2 gusting 9 27.2
2020-Sep-17 16:17 206 5 gusting 9 27.2
2020-Sep-17 16:12 224 2 gusting 8 27.2
2020-Sep-17 16:07 215 4 gusting 9 27.2
2020-Sep-17 16:02 205 6 gusting 9 27.2
2020-Sep-17 15:57 215 1 gusting 8 27.2
2020-Sep-17 15:52 238 0 gusting 11 27.8
2020-Sep-17 15:47 209 2 gusting 9 27.8
2020-Sep-17 15:42 244 3 gusting 9 27.8
2020-Sep-17 15:37 215 4 gusting 9 27.8
2020-Sep-17 15:32 213 0 gusting 8 27.8
2020-Sep-17 15:27 231 4 gusting 8 27.8
2020-Sep-17 15:22 256 2 gusting 12 27.8
2020-Sep-17 15:17 229 3 gusting 12 27.8
2020-Sep-17 15:12 283 5 gusting 13 27.8
2020-Sep-17 15:07 208 4 gusting 13 27.8
2020-Sep-17 15:02 221 5 gusting 13 27.8
2020-Sep-17 14:57 220 8 gusting 13 27.8
2020-Sep-17 14:52 205 6 gusting 13 27.8
2020-Sep-17 14:47 258 5 gusting 13 27.8
2020-Sep-17 14:42 267 5 gusting 9 27.8
2020-Sep-17 14:37 193 5 gusting 11 27.8
2020-Sep-17 14:32 227 4 gusting 13 27.2
2020-Sep-17 14:27 216 4 gusting 13 27.2
2020-Sep-17 14:22 246 3 gusting 9 27.2
2020-Sep-17 14:17 234 2 gusting 14 27.2
2020-Sep-17 14:12 286 3 gusting 14 27.2
2020-Sep-17 14:07 193 2 gusting 9 27.2
2020-Sep-17 14:02 217 6 gusting 10 27.2
2020-Sep-17 13:57 237 4 gusting 11 26.7
2020-Sep-17 13:52 207 4 gusting 11 26.7
2020-Sep-17 13:47 253 3 gusting 8 26.7
2020-Sep-17 13:42 246 1 gusting 10 26.1
2020-Sep-17 13:37 258 2 gusting 10 26.1
2020-Sep-17 13:32 202 3 gusting 11 26.1
2020-Sep-17 13:27 229 3 gusting 11 25.6
2020-Sep-17 13:22 215 1 gusting 8 25.6
2020-Sep-17 13:17 207 25.6
2020-Sep-17 13:12 206 2 gusting 8 25.6
2020-Sep-17 13:07 206 2 gusting 8 25.6
2020-Sep-17 13:02 209 5 gusting 8 25.6
2020-Sep-17 12:57 231 2 gusting 6 25.6
2020-Sep-17 12:52 267 2 gusting 8 25.6
2020-Sep-17 12:47 206 6 gusting 10 25.6
2020-Sep-17 12:42 223 4 gusting 10 25.6
2020-Sep-17 12:37 215 1 gusting 9 25.6
2020-Sep-17 12:32 238 6 gusting 9 25.6
2020-Sep-17 12:27 227 3 gusting 6 25.6
2020-Sep-17 12:22 198 3 gusting 8 25.0
2020-Sep-17 12:17 211 3 gusting 8 25.0
2020-Sep-17 12:12 233 3 gusting 9 25.0
2020-Sep-17 12:07 202 4 gusting 9 24.4
2020-Sep-17 12:02 211 6 gusting 9 24.4
2020-Sep-17 11:57 244 0 gusting 11 24.4
2020-Sep-17 11:52 217 0 gusting 11 24.4
2020-Sep-17 11:47 219 6 gusting 11 24.4
2020-Sep-17 11:42 213 1 gusting 3 24.4
2020-Sep-17 11:37 216 24.4
2020-Sep-17 11:32 216 0 gusting 3 24.4
2020-Sep-17 11:27 216 24.4
2020-Sep-17 11:22 213 24.4
2020-Sep-17 11:17 213 1 gusting 3 24.4
2020-Sep-17 11:12 232 1 gusting 4 24.4
2020-Sep-17 11:07 217 1 gusting 4 24.4
2020-Sep-17 11:02 073 0 gusting 3 24.4
2020-Sep-17 10:57 075 23.9
2020-Sep-17 10:52 075 23.9
2020-Sep-17 10:47 075 23.9
2020-Sep-17 10:42 075 23.3
2020-Sep-17 10:37 076 23.3
2020-Sep-17 10:32 076 23.3
2020-Sep-17 10:27 076 23.3
2020-Sep-17 10:22 075 23.3
2020-Sep-17 10:17 076 22.8
2020-Sep-17 10:12 076 22.8
2020-Sep-17 10:07 075 22.8
2020-Sep-17 10:02 075 22.8
2020-Sep-17 09:57 075 22.8
2020-Sep-17 09:52 076 22.8
2020-Sep-17 09:47 075 22.8
2020-Sep-17 09:42 076 22.8
2020-Sep-17 09:37 075 22.8
2020-Sep-17 09:32 075 22.8
2020-Sep-17 09:27 075 22.2
2020-Sep-17 09:22 075 22.2
2020-Sep-17 09:17 076 22.2
2020-Sep-17 09:12 075 22.2
2020-Sep-17 09:07 075 22.2
2020-Sep-17 09:02 075 22.2